• In Czech Republic
  • List of Countries
  • For 7 days
  • Water Temperature
  • Satellite Maps
  • Weather Map
  • Weather Widgets
  • user-avatar
    Login

    Hourly Weather Ghent

    Today, 15 November, Thursday

    Time Temperature Precipitation Wind Pressure Humidity
    00:00 +7°C° 0 mm 3 mps 767 mmHg 87%
    01:00 +7°C° 0 mm 3 mps 767 mmHg 87%
    02:00 +7°C° 0 mm 3 mps 767 mmHg 88%
    03:00 +7°C° 0 mm 3 mps 767 mmHg 88%
    04:00 +7°C° 0 mm 3 mps 767 mmHg 88%
    05:00 +7°C° 0 mm 3 mps 767 mmHg 87%
    06:00 +7°C° 0 mm 3 mps 767 mmHg 87%
    07:00 +8°C° 0 mm 3 mps 767 mmHg 82%
    08:00 +8°C° 0 mm 3 mps 767 mmHg 78%
    09:00 +9°C° 0 mm 3 mps 767 mmHg 74%
    10:00 +11°C° 0 mm 3 mps 767 mmHg 70%
    11:00 +12°C° 0 mm 3 mps 766 mmHg 65%
    12:00 +13°C° 0 mm 3 mps 766 mmHg 61%
    13:00 +13°C° 0 mm 3 mps 766 mmHg 64%
    14:00 +13°C° 0 mm 3 mps 766 mmHg 66%
    15:00 +14°C° 0 mm 2 mps 766 mmHg 69%
    16:00 +11°C° 0 mm 3 mps 766 mmHg 72%
    17:00 +10°C° 0 mm 3 mps 766 mmHg 75%
    18:00 +9°C° 0 mm 3 mps 766 mmHg 77%
    19:00 +9°C° 0 mm 3 mps 766 mmHg 78%
    20:00 +8°C° 0 mm 3 mps 766 mmHg 79%
    21:00 +8°C° 0 mm 3 mps 767 mmHg 79%
    22:00 +8°C° 0 mm 3 mps 767 mmHg 80%
    23:00 +7°C° 0 mm 2 mps 767 mmHg 81%

    Tomorrow, 16 November, Friday

    Time Temperature Precipitation Wind Pressure Humidity
    00:00 +7°C° 0 mm 2 mps 767 mmHg 82%
    01:00 +7°C° 0 mm 2 mps 767 mmHg 84%
    02:00 +6°C° 0 mm 2 mps 767 mmHg 85%
    03:00 +6°C° 0 mm 2 mps 767 mmHg 87%
    04:00 +6°C° 0 mm 2 mps 767 mmHg 87%
    05:00 +6°C° 0 mm 2 mps 768 mmHg 87%
    06:00 +6°C° 0 mm 2 mps 768 mmHg 88%
    07:00 +6°C° 0 mm 2 mps 768 mmHg 85%
    08:00 +7°C° 0 mm 2 mps 768 mmHg 81%
    09:00 +8°C° 0 mm 2 mps 768 mmHg 78%
    10:00 +9°C° 0 mm 2 mps 768 mmHg 73%
    11:00 +10°C° 0 mm 2 mps 768 mmHg 68%
    12:00 +12°C° 0 mm 3 mps 768 mmHg 62%
    13:00 +12°C° 0 mm 3 mps 768 mmHg 64%
    14:00 +12°C° 0 mm 2 mps 768 mmHg 66%
    15:00 +12°C° 0 mm 2 mps 768 mmHg 67%
    16:00 +10°C° 0 mm 3 mps 768 mmHg 69%
    17:00 +9°C° 0 mm 3 mps 768 mmHg 70%
    18:00 +8°C° 0 mm 3 mps 769 mmHg 72%
    19:00 +7°C° 0 mm 4 mps 769 mmHg 70%
    20:00 +6°C° 0 mm 4 mps 769 mmHg 69%
    21:00 +6°C° 0 mm 4 mps 769 mmHg 67%
    22:00 +5°C° 0 mm 4 mps 769 mmHg 66%
    23:00 +5°C° 0 mm 4 mps 769 mmHg 66%

    Day after tomorrow, 17 November, Saturday

    Time Temperature Precipitation Wind Pressure Humidity
    00:00 +4°C° 0 mm 4 mps 769 mmHg 65%
    01:00 +4°C° 0 mm 4 mps 769 mmHg 66%
    02:00 +3°C° 0 mm 4 mps 769 mmHg 67%
    03:00 +3°C° 0 mm 4 mps 769 mmHg 68%
    04:00 +3°C° 0 mm 4 mps 769 mmHg 70%
    05:00 +3°C° 0 mm 4 mps 769 mmHg 72%
    06:00 +1°C° 0 mm 4 mps 769 mmHg 73%
    07:00 +2°C° 0 mm 5 mps 769 mmHg 72%
    08:00 +3°C° 0 mm 5 mps 769 mmHg 70%
    09:00 +3°C° 0 mm 6 mps 769 mmHg 69%
    10:00 +5°C° 0 mm 6 mps 769 mmHg 65%
    11:00 +7°C° 0 mm 6 mps 769 mmHg 61%
    12:00 +8°C° 0 mm 7 mps 769 mmHg 57%
    13:00 +8°C° 0 mm 7 mps 769 mmHg 58%
    14:00 +8°C° 0 mm 7 mps 768 mmHg 58%
    15:00 +8°C° 0 mm 6 mps 768 mmHg 58%
    16:00 +7°C° 0 mm 6 mps 768 mmHg 58%
    17:00 +7°C° 0 mm 6 mps 768 mmHg 59%
    18:00 +5°C° 0 mm 7 mps 768 mmHg 59%
    19:00 +5°C° 0 mm 6 mps 768 mmHg 60%
    20:00 +4°C° 0 mm 6 mps 768 mmHg 60%
    21:00 +4°C° 0 mm 6 mps 769 mmHg 60%
    22:00 +4°C° 0 mm 6 mps 769 mmHg 60%
    23:00 +3°C° 0 mm 6 mps 769 mmHg 60%

    18 November, Sunday

    Time Temperature Precipitation Wind Pressure Humidity
    00:00 +3°C° 0 mm 6 mps 768 mmHg 60%
    01:00 +2°C° 0 mm 6 mps 768 mmHg 58%
    02:00 +2°C° 0 mm 6 mps 768 mmHg 55%
    03:00 +2°C° 0 mm 6 mps 768 mmHg 53%
    04:00 +2°C° 0 mm 6 mps 767 mmHg 52%
    05:00 +1°C° 0 mm 6 mps 767 mmHg 52%
    06:00 0°C° 0 mm 7 mps 767 mmHg 51%
    07:00 +2°C° 0 mm 7 mps 767 mmHg 52%
    08:00 +2°C° 0 mm 7 mps 767 mmHg 52%
    09:00 +2°C° 0 mm 8 mps 767 mmHg 52%
    10:00 +4°C° 0 mm 8 mps 767 mmHg 51%
    11:00 +5°C° 0 mm 8 mps 767 mmHg 49%
    12:00 +6°C° 0 mm 8 mps 766 mmHg 48%
    13:00 +6°C° 0 mm 8 mps 766 mmHg 49%
    14:00 +6°C° 0 mm 7 mps 766 mmHg 50%
    15:00 +6°C° 0 mm 7 mps 766 mmHg 51%
    16:00 +5°C° 0 mm 6 mps 766 mmHg 53%
    17:00 +4°C° 0 mm 6 mps 766 mmHg 54%
    18:00 +4°C° 0 mm 6 mps 766 mmHg 56%
    19:00 +3°C° 0 mm 6 mps 766 mmHg 57%
    20:00 +3°C° 0 mm 6 mps 766 mmHg 59%
    21:00 +3°C° 0 mm 6 mps 766 mmHg 60%
    22:00 +2°C° 0 mm 6 mps 766 mmHg 61%
    23:00 +2°C° 0 mm 6 mps 766 mmHg 62%

    19 November, Monday

    Time Temperature Precipitation Wind Pressure Humidity
    00:00 +2°C° 0 mm 6 mps 766 mmHg 63%
    01:00 +1°C° 0 mm 6 mps 766 mmHg 64%
    02:00 +1°C° 0 mm 6 mps 766 mmHg 64%
    03:00 +1°C° 0 mm 6 mps 766 mmHg 64%
    04:00 +1°C° 0 mm 6 mps 766 mmHg 62%
    05:00 +1°C° 0 mm 6 mps 766 mmHg 60%
    06:00 +1°C° 0 mm 6 mps 766 mmHg 58%
    07:00 0°C° 0 mm 7 mps 766 mmHg 55%
    08:00 +2°C° 0 mm 7 mps 766 mmHg 52%
    09:00 +2°C° 0 mm 7 mps 766 mmHg 49%
    10:00 +2°C° 0 mm 8 mps 766 mmHg 50%
    11:00 +4°C° 0 mm 8 mps 766 mmHg 52%
    12:00 +5°C° 0 mm 8 mps 765 mmHg 53%
    13:00 +5°C° 0 mm 7 mps 765 mmHg 55%
    14:00 +5°C° 0 mm 7 mps 765 mmHg 58%
    15:00 +5°C° 0 mm 7 mps 765 mmHg 61%
    16:00 +4°C° 0 mm 7 mps 765 mmHg 62%
    17:00 +3°C° 0 mm 7 mps 765 mmHg 64%
    18:00 +2°C° 0 mm 7 mps 765 mmHg 65%
    19:00 +2°C° 0 mm 7 mps 765 mmHg 65%
    20:00 0°C° 0 mm 7 mps 765 mmHg 65%
    21:00 0°C° 0 mm 7 mps 766 mmHg 65%
    22:00 0°C° 0 mm 7 mps 766 mmHg 66%
    23:00 -1°C° 0 mm 7 mps 766 mmHg 66%

    20 November, Tuesday

    Time Temperature Precipitation Wind Pressure Humidity
    00:00 -1°C° 0 mm 7 mps 766 mmHg 67%
    01:00 -1°C° 0 mm 7 mps 766 mmHg 69%
    02:00 -2°C° 0 mm 7 mps 766 mmHg 71%
    03:00 -2°C° 0 mm 7 mps 766 mmHg 73%
    04:00 -2°C° 0 mm 7 mps 766 mmHg 73%
    05:00 -2°C° 0 mm 7 mps 766 mmHg 74%
    06:00 -2°C° 0 mm 7 mps 766 mmHg 75%
    07:00 -2°C° 0 mm 7 mps 766 mmHg 75%
    08:00 -1°C° 0 mm 7 mps 766 mmHg 74%
    09:00 -1°C° 0 mm 7 mps 766 mmHg 74%
    10:00 0°C° 0 mm 7 mps 766 mmHg 70%
    11:00 +2°C° 0 mm 7 mps 766 mmHg 66%
    12:00 +3°C° 0 mm 7 mps 766 mmHg 62%
    13:00 +3°C° 0 mm 7 mps 766 mmHg 61%
    14:00 +3°C° 0 mm 6 mps 766 mmHg 61%
    15:00 +3°C° 0 mm 6 mps 766 mmHg 61%
    16:00 +2°C° 0 mm 6 mps 766 mmHg 62%
    17:00 +1°C° 0 mm 6 mps 767 mmHg 64%
    18:00 -1°C° 0 mm 6 mps 767 mmHg 66%
    19:00 -1°C° 0 mm 6 mps 767 mmHg 68%
    20:00 0°C° 0 mm 5 mps 768 mmHg 69%
    21:00 -1°C° 0 mm 5 mps 768 mmHg 71%
    22:00 -1°C° 0 mm 5 mps 768 mmHg 73%
    23:00 -2°C° 0 mm 4 mps 768 mmHg 76%
    Show more